星链-5425 (STARLINK-5425 )

导读

STARLINK-5425是美国太空探索技术公司(SpaceX)星链卫星互联网项目的一颗卫星,于2022年12月17日发射升空,属于星链项目第二批组网卫星。星链系统旨在为全球提供高速互联网接入服务,该卫星入轨后,进一步扩充了星链星座的在轨卫星规模,提升了星座的覆盖能力与服务稳定性。

Basic Information
目录编号:
54791
目录名称:
STARLINK-5425
国际标识:
2022-175AK
轨道中心:
EARTH
卫星名称:
星链-5425
卫星全名:
星链-5425 (STARLINK-5425 )
卫星状态:
在轨 (已飞行1278 天)
发射日期:
2022-12-17 UTC
国别 :
美国 (US)
星等 :
--
Orbit Information
数据来源 国际轨道数据 AOE轨道数据
星历时间 2026-06-17T09:43:43+0800
9小时前
查看轨道信息
2026-06-11T23:00:00+0800
5天前
查看轨道信息
半长轴 6917.901km 6917.886km
偏心率 0.0001183 0.0001282
轨道倾角 53.161° 53.160°
近地点辐角 88.384° 95.017°
升交点赤经 302.824° 327.313°
平近点角 271.729° 181.726°
近地点 538.945km 538.862km
远地点 540.583km 540.636km
周期 95.438分钟 95.438分钟
每日圈数 15.088333 15.088383
Detailed Information
固有亮度:
5
最大亮度:
2.5
卫星平台:
Starlink v1.5
覆盖范围:
全球
运营商:
太空探索技术公司
运营商所在国:
美国
制造商(研发单位):
太空探索技术公司
制造商所在国:
美国
使用方式:
暂无
Satellite Introduction
星链(Starlink)计划是由太空探索技术公司(SpaceX)提出的一个巨型低轨卫星互联网星座项目,计划在2019年至2024年间在太空搭建由约1.2万颗卫星组成的“星链”网络,其中1584颗将部署在地球上空550千米处的近地轨道,并从2020年开始工作。该卫星仍在工作。
2D Orbit Map
3D Orbit Map
Orbit Altitude Analysis Chart
Orbit Inclination Analysis Chart
Orbit Comprehensive Analysis Chart
View Comprehensive Chart